Simultaneous Nadir Overpasses (SNOs) Predictions

Prediction of SNOs between AQUA and METOP-C Satellite Orbit:

Table of predicted SNOs for the next 14.0 days since TLE Epoch: 7/19/2025
Index Date (AQUA) Time (AQUA) Lat,Lon (AQUA) SZA (AQUA ) Date (METOP-C) Time (METOP-C) Lat,Lon (METOP-C) SZA (METOP-C ) Distance(km) Time Diff (sec)
1 07/20/2025 10:03:44 76.74, 32.37 56.10 07/20/2025 10:03:09 76.74, 32.32 56.10 1.47 35
2 07/20/2025 10:53:03 -76.82,-160.23 123.82 07/20/2025 10:53:50 -76.78,-160.21 123.86 4.04 47
3 07/22/2025 22:02:31 -76.74, 32.73 123.41 07/22/2025 22:01:25 -76.72, 32.68 123.43 2.64 66
4 07/22/2025 22:51:50 76.77,-159.69 56.63 07/22/2025 22:52:03 76.79,-159.70 56.66 2.54 13
5 07/25/2025 10:50:37 -76.80,-159.42 122.82 07/25/2025 10:50:19 -76.78,-159.34 122.84 3.34 18
6 07/25/2025 11:39:56 76.83, 8.15 57.22 07/25/2025 11:40:57 76.84, 8.26 57.24 3.39 61
7 07/27/2025 22:49:23 76.76,-158.91 57.71 07/27/2025 22:48:32 76.77,-158.89 57.73 1.61 51
8 07/27/2025 23:38:42 -76.83, 8.51 122.21 07/27/2025 23:39:13 -76.82, 8.63 122.22 3.26 31
9 07/30/2025 10:48:03 -76.55,-157.79 121.90 07/30/2025 10:46:54 -76.44,-159.71 122.02 51.29 69
10 07/30/2025 11:37:27 76.82, 8.92 58.38 07/30/2025 11:37:25 76.82, 9.05 58.37 3.34 2
11 07/30/2025 12:26:52 -77.17, 175.27 121.28 07/30/2025 12:27:59 -77.17, 177.84 121.25 63.45 67
12 08/01/2025 23:36:11 -76.78, 9.45 121.04 08/01/2025 23:35:41 -76.80, 9.41 121.03 2.08 30



Historial Predications of SNOs between AQUA and METOP-C
